This is the latest recevied weather packets stored in our database for station/object N4ZIQ. If no packets are shown the sender has not sent any weather packets the latest 10 day(s).
| Time | Temp. | Humidity | Pressure | Rain* | Wind** | Luminosity | Snow |
|---|---|---|---|---|---|---|---|
| 1778182547 | 33.89° C | 51% | 1013.9 hPa | 0 mm | - | 183 W/m² | - |
| 1778182253 | 33.33° C | 51% | 1013.9 hPa | 0 mm | - | 693 W/m² | - |
| 1778181945 | 33.33° C | 50% | 1014 hPa | 0 mm | - | 185 W/m² | - |
| 1778181646 | 33.33° C | 51% | 1014 hPa | 0 mm | - | 197 W/m² | - |
| 1778181352 | 33.33° C | 51% | 1014.1 hPa | 0 mm | - | 97 W/m² | - |
| 1778181046 | 33.89° C | 50% | 1014.2 hPa | 0 mm | - | 165 W/m² | - |
| 1778180744 | 33.33° C | 51% | 1014.1 hPa | 0 mm | - | 796 W/m² | - |
| 1778180453 | 32.78° C | 52% | 1014.2 hPa | 0 mm | - | 796 W/m² | - |
| 1778180146 | 33.33° C | 51% | 1014.4 hPa | 0 mm | - | 796 W/m² | - |
| 1778179845 | 33.33° C | 51% | 1014.4 hPa | 0 mm | - | 798 W/m² | - |
| 1778179550 | 33.33° C | 51% | 1014.6 hPa | 0 mm | - | 802 W/m² | - |
| 1778179249 | 33.33° C | 51% | 1014.7 hPa | 0 mm | - | 814 W/m² | - |
| 1778178947 | 33.33° C | 52% | 1014.6 hPa | 0 mm | - | 816 W/m² | - |
| 1778178659 | 32.78° C | 51% | 1014.7 hPa | 0 mm | - | 830 W/m² | - |
| 1778178348 | 32.78° C | 53% | 1014.9 hPa | 0 mm | - | 833 W/m² | - |
| 1778178048 | 32.78° C | 51% | 1015 hPa | 0 mm | - | 847 W/m² | - |
| 1778177749 | 32.78° C | 51% | 1015.2 hPa | 0 mm | - | 870 W/m² | - |
| 1778177447 | 32.78° C | 50% | 1015.3 hPa | 0 mm | - | 847 W/m² | - |
| 1778177147 | 32.78° C | 50% | 1015.3 hPa | 0 mm | - | 854 W/m² | - |
| 1778176859 | 32.78° C | 51% | 1015.4 hPa | 0 mm | - | 858 W/m² | - |
| 1778176545 | 32.78° C | 51% | 1015.5 hPa | 0 mm | - | 860 W/m² | - |
| 1778176246 | 32.78° C | 51% | 1015.5 hPa | 0 mm | - | 867 W/m² | - |
| 1778175957 | 32.78° C | 51% | 1015.4 hPa | 0 mm | - | 872 W/m² | - |
| 1778175646 | 32.22° C | 51% | 1015.6 hPa | 0 mm | - | 874 W/m² | - |
| 1778175345 | 32.22° C | 51% | 1015.7 hPa | 0 mm | - | 875 W/m² | - |
* Rain latest hour (hover to see other rain measurements)
** Current wind speed in m/s (hover to see current wind gust speed)